Le nostre stazioni meteo in Italia

Pubblicità
Il mio iltempo24.it
Falconara, Italia (16191): Temperatura & dewpoint: 13.05.2019 21:00:00 - 19.05.2019 21:00:00 (CEST)Falconara, Italia (16191): velocità del vento: 13.05.2019 21:00:00 - 19.05.2019 21:00:00 (CEST)Falconara, Italia (16191): direzione del vento: 13.05.2019 21:00:00 - 19.05.2019 21:00:00 (CEST)Falconara, Italia (16191): reduced air pressure: 13.05.2019 21:00:00 - 19.05.2019 21:00:00 (CEST)Falconara, Italia (16191): visibility: 13.05.2019 21:00:00 - 19.05.2019 21:00:00 (CEST)Falconara, Italia (16191): precipitazioni: 13.05.2019 21:00:00 - 19.05.2019 21:00:00 (CEST)
Data & Tempo tt [°C] td [°C] ff [km/h] ff [kn] dd ppp [hPa] vv [km] rr [mm]
19.05.2019 21:00:00 16,0 12,0 8 4 OSO - 10 -
19.05.2019 20:00:00 16,5 12,6 4 2 - 1004,6 10 -
19.05.2019 19:00:00 17,0 12,0 9 5 N - 10 -
19.05.2019 18:00:00 17,0 13,0 5 3 N - 10 -
19.05.2019 17:00:00 16,9 11,3 8 4 NNO 1003,9 10 0,0
19.05.2019 16:00:00 16,0 13,0 8 4 NNO - 10 -
19.05.2019 15:00:00 17,0 13,0 13 7 N - 10 -
19.05.2019 14:00:00 18,7 13,9 9 5 NNE 1003,4 20 -
19.05.2019 13:00:00 17,0 16,0 5 3 - - 10 -
19.05.2019 12:00:00 - - - - - - - -
19.05.2019 11:00:00 15,9 15,3 2 1 - 1004,2 10 0,0
19.05.2019 10:00:00 15,0 15,0 4 2 - - 10 -
19.05.2019 09:00:00 15,0 15,0 4 2 SO - 8 -
19.05.2019 08:00:00 14,4 14,4 4 2 OSO 1004,3 25 -
19.05.2019 07:00:00 14,0 14,0 4 2 - - 10 -
19.05.2019 06:00:00 13,0 13,0 5 3 SE - 10 -
19.05.2019 05:00:00 13,2 13,2 11 6 SO 1004,6 6 0,0
19.05.2019 04:00:00 14,0 14,0 2 1 - - 4,3 -
19.05.2019 03:00:00 13,0 13,0 4 2 - - 4,5 -
19.05.2019 02:00:00 13,4 13,4 0 0 N 1005,4 4,7 -
19.05.2019 01:00:00 13,0 13,0 4 2 SSO - 4,9 -
19.05.2019 00:00:00 14,0 14,0 4 2 - - 10 -
18.05.2019 23:00:00 14,2 13,9 0 0 N 1006,4 15 0,0
18.05.2019 22:00:00 14,0 14,0 4 2 SO - 10 -
18.05.2019 21:00:00 14,0 14,0 9 5 SSO - 10 -
18.05.2019 20:00:00 15,2 14,6 11 6 E 1005,8 8 -
18.05.2019 19:00:00 15,0 13,0 9 5 E - 10 -
18.05.2019 18:00:00 15,0 12,0 26 14 SO - 7 -
18.05.2019 17:00:00 17,9 15,0 9 5 ESE 1004,4 8 0,0
18.05.2019 16:00:00 18,0 15,0 9 5 E - 7 -
18.05.2019 15:00:00 18,0 15,0 11 6 NE - 10 -
18.05.2019 14:00:00 19,4 14,1 13 7 ENE 1004,8 10 -
18.05.2019 13:00:00 19,0 14,0 5 3 - - 10 -
18.05.2019 12:00:00 18,0 14,0 5 3 - - 10 -
18.05.2019 11:00:00 18,2 13,8 9 5 ESE 1005,0 10 0,0
18.05.2019 10:00:00 18,0 14,0 9 5 E - 10 -
18.05.2019 09:00:00 17,0 14,0 8 4 SE - 10 -
18.05.2019 08:00:00 16,3 14,1 5 3 ESE 1005,0 15 -
18.05.2019 07:00:00 16,0 14,0 4 2 - - 10 -
18.05.2019 06:00:00 15,0 14,0 2 1 - - 10 -
18.05.2019 05:00:00 14,5 13,1 2 1 N 1005,7 10 0,0
18.05.2019 04:00:00 15,0 13,0 5 3 E - 10 -
18.05.2019 03:00:00 15,0 13,0 5 3 ESE - 10 -
18.05.2019 02:00:00 15,0 12,4 4 2 N 1007,4 10 -
18.05.2019 01:00:00 15,0 12,0 4 2 - - 10 -
18.05.2019 00:00:00 15,0 11,0 2 1 - - 10 -
17.05.2019 23:00:00 15,3 11,2 5 3 N 1008,6 10 0,0
17.05.2019 22:00:00 16,0 11,0 8 4 E - 10 -
17.05.2019 21:00:00 15,0 11,0 8 4 - - 10 -
17.05.2019 20:00:00 15,9 11,5 9 5 ESE 1008,2 20 -
17.05.2019 19:00:00 17,0 11,0 13 7 SE - 10 -
17.05.2019 18:00:00 17,0 11,0 11 6 ESE - 10 -
17.05.2019 17:00:00 17,3 11,3 9 5 SE 1009,3 20 0,0
17.05.2019 16:00:00 18,0 11,0 16 9 ESE - 10 -
17.05.2019 15:00:00 20,0 12,0 16 9 E - 10 -
17.05.2019 14:00:00 19,4 11,6 16 9 ESE 1009,5 10 -
17.05.2019 13:00:00 19,0 12,0 13 7 E - 10 -
17.05.2019 12:00:00 20,0 12,0 5 3 - - 10 -
17.05.2019 11:00:00 18,6 12,8 8 4 N 1010,2 25 0,0
17.05.2019 10:00:00 17,0 12,0 5 3 - - 10 -
17.05.2019 09:00:00 16,0 12,0 4 2 - - 10 -
17.05.2019 08:00:00 11,7 10,8 2 1 N 1010,6 30 -
17.05.2019 07:00:00 8,0 8,0 4 2 SSO - 10 -
17.05.2019 06:00:00 7,0 7,0 4 2 S - 10 -
17.05.2019 05:00:00 7,2 6,8 4 2 S 1010,3 10 0,0
17.05.2019 04:00:00 8,0 8,0 4 2 S - 10 -
17.05.2019 03:00:00 9,0 8,0 5 3 S - 10 -
17.05.2019 02:00:00 8,6 7,5 4 2 OSO 1011,0 10 -
17.05.2019 01:00:00 9,0 7,0 5 3 SSO - 10 -
17.05.2019 00:00:00 11,0 9,0 5 3 SSE - 10 -
16.05.2019 23:00:00 9,7 7,9 5 3 SSO 1011,8 10 0,0
16.05.2019 22:00:00 12,0 8,0 4 2 - - 10 -
16.05.2019 21:00:00 13,0 9,0 2 1 - - 10 -
16.05.2019 20:00:00 15,0 8,2 0 0 N 1011,5 25 -
16.05.2019 19:00:00 15,0 9,0 4 2 - - 10 -
16.05.2019 18:00:00 15,0 10,0 9 5 NNE - 10 -
16.05.2019 17:00:00 15,4 9,9 11 6 NNE 1011,6 25 0,0
16.05.2019 16:00:00 16,0 10,0 16 9 N - 10 -
16.05.2019 15:00:00 15,0 10,0 16 9 N - 10 -
16.05.2019 14:00:00 15,6 10,0 15 8 N 1012,4 20 -
16.05.2019 13:00:00 14,0 10,0 16 9 N - 10 -
16.05.2019 12:00:00 15,0 11,0 18 10 NNO - 10 -
16.05.2019 11:00:00 14,4 10,5 18 10 NO 1013,2 20 0,0
16.05.2019 10:00:00 14,0 10,0 18 10 NO - 10 -
16.05.2019 09:00:00 13,0 10,0 15 8 NO - 10 -
16.05.2019 08:00:00 11,7 9,1 8 4 OSO 1013,2 20 -
16.05.2019 07:00:00 8,0 7,0 5 3 S - 10 -
16.05.2019 06:00:00 7,0 6,0 9 5 S - 10 -
16.05.2019 05:00:00 7,1 6,1 8 4 SSE 1012,9 10 0,0
16.05.2019 04:00:00 7,0 6,0 5 3 S - 10 -
16.05.2019 03:00:00 8,0 6,0 5 3 S - 10 -
16.05.2019 02:00:00 7,7 6,4 4 2 S 1013,7 10 -
16.05.2019 01:00:00 7,0 6,0 5 3 S - 10 -
16.05.2019 00:00:00 8,0 6,0 5 3 S - 10 -
15.05.2019 23:00:00 8,5 6,4 4 2 S 1014,0 10 0,0
15.05.2019 22:00:00 10,0 7,0 4 2 S - 10 -
15.05.2019 21:00:00 10,0 6,0 5 3 NO - 10 -
15.05.2019 20:00:00 12,3 6,9 5 3 N 1013,3 15 -
15.05.2019 19:00:00 13,0 7,0 13 7 NNE - 10 -
15.05.2019 18:00:00 26,0 20,0 11 6 ENE - 10 -
15.05.2019 17:00:00 13,6 7,6 15 8 NNE 1013,0 20 0,0
15.05.2019 16:00:00 14,0 9,0 21 11 N - 10 -
15.05.2019 15:00:00 14,0 10,0 18 10 NNO - 10 -
15.05.2019 14:00:00 13,3 9,1 21 11 N 1013,2 20 -
15.05.2019 13:00:00 13,0 9,0 18 10 NNO - 10 -
15.05.2019 12:00:00 13,0 8,0 15 8 NNO - 10 -
15.05.2019 11:00:00 11,7 7,7 16 9 NNO 1013,0 20 0,0
15.05.2019 10:00:00 10,0 7,0 11 6 O - 10 -
15.05.2019 09:00:00 9,0 8,0 8 4 S - 10 -
15.05.2019 08:00:00 8,2 7,1 8 4 OSO 1013,1 10 -
15.05.2019 07:00:00 8,0 7,0 13 7 OSO - 10 -
15.05.2019 06:00:00 8,0 7,0 9 5 SO - 10 -
15.05.2019 05:00:00 9,2 6,1 16 9 N 1013,2 10 0,0
15.05.2019 04:00:00 8,0 6,0 13 7 ENE - 10 -
15.05.2019 03:00:00 10,0 7,0 13 7 NNE - 10 -
15.05.2019 02:00:00 10,7 5,3 15 8 NNO 1014,3 10 -
15.05.2019 01:00:00 11,0 4,0 16 9 NNO - 10 -
15.05.2019 00:00:00 11,0 5,0 22 12 N - 10 -
14.05.2019 23:00:00 10,9 5,1 13 7 N 1016,2 14 0,0
14.05.2019 22:00:00 11,0 5,0 13 7 N - 10 -
14.05.2019 21:00:00 12,0 5,0 21 11 N - 10 -
14.05.2019 20:00:00 11,9 5,3 28 15 N 1016,8 10 -
14.05.2019 19:00:00 12,0 6,0 26 14 NNE - 10 -
14.05.2019 18:00:00 - - - - - - - -
14.05.2019 17:00:00 12,1 6,2 29 16 NNE 1016,7 11 0,0
14.05.2019 16:00:00 13,0 7,0 31 17 NNE - 10 -
14.05.2019 15:00:00 14,0 9,0 11 6 ONO - 10 -
14.05.2019 14:00:00 12,8 9,3 5 3 ONO 1017,3 10 -
14.05.2019 13:00:00 13,0 10,0 8 4 NO - 8 -
14.05.2019 12:00:00 13,0 10,0 9 5 NNO - 8 -
14.05.2019 11:00:00 13,0 9,1 8 4 N 1017,4 8 0,0
14.05.2019 10:00:00 12,0 10,0 8 4 NO - 8 -
14.05.2019 09:00:00 12,0 8,0 13 7 NE - 6 -
14.05.2019 08:00:00 12,0 9,1 11 6 NNE 1017,5 5 -
14.05.2019 07:00:00 12,0 10,0 15 8 NNE - 4,0 -
14.05.2019 06:00:00 12,0 9,0 13 7 NE - 4,0 -
14.05.2019 05:00:00 11,9 9,0 22 12 NNE 1017,1 10 0,0
14.05.2019 04:00:00 13,0 9,0 26 14 NNE - 10 -
14.05.2019 03:00:00 13,0 9,0 24 13 NNE - 10 -
14.05.2019 02:00:00 13,9 9,5 21 11 NNE 1017,1 10 -
14.05.2019 01:00:00 14,0 9,0 21 11 NNE - 10 -
14.05.2019 00:00:00 14,0 9,0 24 13 NNE - 10 -
13.05.2019 23:00:00 13,5 9,3 24 13 NNE 1018,0 15 0,0
13.05.2019 22:00:00 14,0 9,0 34 18 NE - 10 -
13.05.2019 21:00:00 13,0 10,0 21 11 NE - 7 -

tt = Temperatura
td = dewpoint
ff = velocità del vento
dd = direzione del vento
ppp = reduced air pressure
vv = visibility
rr = precipitazioni

Stazioni seguenti

WeatherPro
AMSI
MeteoEarth